{"data":{"norad_id":48424,"epoch":"2026-05-25T05:13:36.585120Z","epoch_age_seconds":52860,"freshness":"FRESH","line1":"1 48424U 21039B   26145.21778455  .00001778  00000+0  13310-3 0  9997","line2":"2 48424  34.9940 171.0356 0004424 335.5817  24.4681 15.02574888276088","mean_motion":15.02574888,"eccentricity":0.0004424,"inclination_deg":34.994,"raan_deg":171.0356,"arg_perigee_deg":335.5817,"mean_anomaly_deg":24.4681,"bstar":0.0001331,"rev_number":27608,"period_min":95.835489565296,"perigee_km":555.89086693021,"apogee_km":562.02881021298,"semimajor_km":6937.0968385716,"source":"CELESTRAK","updated_at":"2026-05-25T13:37:56.818042Z"}}